Terminal Aerodrome Forecast
Issued by NWS

Home | Current Version | Previous Version | Text Only | Print | Product List | Glossary On
Versions: 1 2 3 4 5 6 7 8 9 10 11 12 13
000
FTUS45 KGGW 242300
TAFSDY
TAF
KSDY 242320Z 2500/2524 29012KT P6SM BKN100
     FM250300 VRB04KT P6SM BKN080
     FM251400 VRB06KT P6SM SCT250
     FM251800 VRB06KT P6SM BKN060
      AMD LTD TO CLD VIS AND WIND=

USA.gov is the U.S. government's official web portal to all federal, state and local government web resources and services.